Observations for Trim Patrick St
| Time | AQI | Temp °C | Hum % | Pres Pa | CO μg/m³ | H₂S μg/m³ | NO μg/m³ | NO₂ μg/m³ | O₃ μg/m³ | SO₂ μg/m³ | PM1 μg/m³ | PM2.5 μg/m³ | PM10 μg/m³ |
|---|---|---|---|---|---|---|---|---|---|---|---|---|---|
| Thursday 27 August 2026 | |||||||||||||
| 18:52 | 3 | 20.2 | 77 | 38,460 | 0 | 1.97 | 1.21 | 11.71 | 49.2 | 1.7 | 19.14 | 26.56 | 29.21 |
| 18:50 | 3 | 20.3 | 78 | 38,460 | 0 | 4.78 | 1.12 | 21.29 | 41.5 | 2.02 | 15.71 | 23.02 | 25.32 |
| 18:46 | 3 | 20.4 | 77 | 38,460 | 0 | 5.33 | 1.32 | 23.16 | 52.47 | 1.41 | 18.29 | 25.89 | 28.48 |
| 18:45 | 3 | 20.4 | 77 | 38,460 | 0 | 3.65 | 1.32 | 14.06 | 48.13 | 2.57 | 15.71 | 22.36 | 24.59 |
| 18:44 | 3 | 20.4 | 77 | 38,460 | 0 | 4.31 | 1.12 | 23.8 | 38.88 | 2.52 | 15.71 | 22.36 | 24.59 |
| 18:43 | 3 | 20.4 | 77 | 38,460 | 0 | 5.36 | 1.11 | 26.37 | 39.31 | 2.33 | 17.43 | 24.49 | 26.94 |
| 18:42 | 3 | 20.5 | 77 | 38,460 | 0 | 4.99 | 0.95 | 21.82 | 45 | 2.02 | 14.86 | 22.37 | 24.61 |
| 18:41 | 3 | 20.4 | 77 | 38,460 | 0 | 4.36 | 0.94 | 15.45 | 53.14 | 2.22 | 14 | 18.84 | 20.72 |
| 18:40 | 3 | 20.5 | 77 | 38,460 | 0 | 4.41 | 0.81 | 14.85 | 52.66 | 3.02 | 14.86 | 23.09 | 25.4 |
| 18:39 | 3 | 20.5 | 77 | 38,460 | 0 | 3.28 | 0.69 | 13.66 | 50.67 | 2.43 | 15.71 | 22.39 | 24.63 |
| 18:38 | 3 | 20.5 | 77 | 38,460 | 0 | 4.28 | 0.68 | 16.23 | 50.75 | 2.54 | 15.71 | 20.98 | 23.08 |
| 18:37 | 3 | 20.5 | 77 | 38,460 | 0 | 3.51 | 0.55 | 12.5 | 52.7 | 2.45 | 14.86 | 21.69 | 23.85 |
| 18:36 | 3 | 20.5 | 77 | 38,460 | 0 | 4.07 | 0.56 | 13.1 | 55.21 | 2.62 | 14.86 | 20.98 | 23.08 |
| 18:35 | 3 | 20.5 | 77 | 38,460 | 0 | 3.8 | 0.6 | 13.08 | 53.77 | 3.01 | 15.71 | 23.82 | 26.2 |
| 18:34 | 3 | 20.5 | 77 | 38,460 | 0 | 3.54 | 0.66 | 13.22 | 53.05 | 2.75 | 15.71 | 23.11 | 25.42 |
| 18:33 | 3 | 20.5 | 77 | 38,460 | 0 | 3.54 | 0.66 | 12.73 | 54.21 | 2.93 | 14.86 | 21.71 | 23.88 |
| 18:32 | 3 | 20.5 | 77 | 38,460 | 0 | 3.83 | 1.05 | 13.07 | 56.21 | 2.7 | 14.86 | 23.12 | 25.44 |
| 18:31 | 3 | 20.5 | 77 | 38,460 | 0 | 3.93 | 0.93 | 14.25 | 49.84 | 2.87 | 16.57 | 23.83 | 26.21 |
| 18:30 | 3 | 20.6 | 76 | 38,460 | 0 | 3.72 | 0.9 | 14.02 | 53.58 | 2.55 | 15.71 | 22.43 | 24.67 |
| 18:29 | 3 | 20.6 | 76 | 38,460 | 0 | 3.54 | 1.09 | 14.51 | 53.18 | 2.7 | 15.71 | 22.43 | 24.67 |